SCP
0 0 0 0 0 0 0 0 0 0 0 0 0 0 0 0 0 0 0 0 0 0 0 0 0 0 0 0 0 0 0 0 0 0 0 0 0 0 0 0 0 0 0
0 0 0 0 0 0 0 0 0 0 0 0 0 0 0 0 0 0 0 0 0 0 0 0 0 0 0 0 0 0 0 0 0 0 0 0 0 0 0 0 0 0 0
0 0 0 0 0 0 0 0 0 0 0 0 0 0 0 0 0 0 0 0 0 0 0 0 0 0 0 0 0 0 0 0 0 0 0 0 0 0 0 0 0 0 0
0 0 0 0 0 0 0 0 0 0 0 0 0 0 0 0 0 0 0 0 0 0 0 0 0 0 0 0 0 0 0 0 0 0 0 0 0 0 0 0 0 0 0
0 0 0 0 0 0 0 0 0 0 0 0 0 0 0 0 0 0 0 0 0 0 0 0 0 0 0 0 0 0 0 0 0 0 0 0 0 0 0 0 0 0 0
0 0 0 0 0 0 0 0 0 0 0 0 0 0 0 0 0 0 0 0 0 0 0 0 0 0 0 0 0 0 0 0 0 0 0 0 0 0 0 0 0 0 0
0 0 0 0 0 0 0 0 0 0 0 0 0 0 0 0 0 0 0 0 0 0 0 0 0 0 0 0 0 0 0 0 0 0 0 0 0 0 0 0 0 0 0
1 0 0 0 0 0 0 0 0 0 0 0 0 0 0 0 0 0 0 0 0 0 0 0 0 0 0 0 0 0 0 0 0 0 0 0 0 0 0 0 0 0 0
1 1 1 0 0 0 0 0 0 0 0 0 0 0 0 0 0 0 0 0 0 0 0 0 0 0 0 0 0 0 0 0 0 0 0 0 0 0 0 0 0 0 0
0 0 0 0 0 1 0 0 0 0 0 0 0 0 0 0 0 0 0 0 0 0 0 0 0 0 0 0 0 0 0 0 0 0 0 0 0 0 0 0 0 0 0
0 0 0 0 0 0 0 0 0 0 0 0 0 0 0 0 0 0 0 0 0 0 0 0 0 0 0 0 0 0 0 0 0 0 0 0 0 0 0 0 0 0 0
1 0 0 0 0 0 0 0 0 0 0 0 0 1 0 0 0 0 0 0 0 0 0 0 0 0 0 0 0 0 0 0 0 0 0 0 0 0 0 0 0 0 0
0 0 0 0 0 0 0 0 0 0 0 0 0 0 0 0 0 0 0 0 0 0 0 0 0 0 0 0 0 0 0 0 0 0 0 0 0 0 0 0 0 0 0
0 0 0 0 0 0 0 0 0 0 0 0 0 0 0 0 0 0 0 0 0 0 0 0 0 0 0 0 0 0 0 0 0 0 0 0 0 0 0 0 0 0 0
0 0 0 0 0 0 0 0 0 0 0 0 0 0 0 0 0 0 0 0 0 0 0 0 0 0 0 0 0 0 0 0 0 0 0 0 0 0 0 0 0 0 0
0 0 0 0 0 0 0 0 0 0 0 0 0 0 0 0 0 0 0 0 0 0 0 0 0 0 0 0 0 0 0 0 0 0 0 0 0 0 0 0 0 0 0
0 0 0 0 0 0 0 0 0 0 0 0 0 0 0 0 0 0 0 0 0 0 0 0 0 0 0 0 0 0 0 0 0 0 0 0 0 0 0 0 0 0 0
0 0 0 0 0 0 0 0 0 0 0 0 0 0 0 0 0 0 0 0 0 0 0 0 0 0 0 0 0 0 0 0 0 0 0 0 0 0 0 0 0 0 0
0 0 0 0 0 0 0 0 0 0 0 0 0 0 0 0 0 0 0 0 0 0 0 0 0 0 0 0 0 0 0 0 0 0 0 0 0 0 0 0 0 0 0
0 0 0 0 0 0 0 0 0 0 0 0 0 0 0 0 0 0 0 0 0 0 0 0 0 0 0 0 0 0 0 0 0 0 0 0 0 0 0 0 0 0 0
0 0 0 0 0 0 0 0 0 0 0 0 0 0 0 0 0 0 0 0 0 0 0 0 0 0 0 0 0 0 0 0 0 0 0 0 0 0 0 0 0 0 0
0 0 0 0 0 0 0 0 0 0 0 0 0 0 0 0 0 0 0 0 0 0 0 0 0 0 0 0 0 0 0 0 0 0 0 0 0 0 0 0 0 0 0
0 0 0 0 0 0 0 0 0 0 0 0 0 0 0 0 0 0 0 0 0 0 0 0 0 0 0 0 0 0 0 0 0 0 0 0 0 0 0 0 0 0 0
0 0 0 0 0 0 0 0 0 0 0 0 0 0 0 0 0 0 0 0 0 0 0 0 0 0 0 0 0 0 0 0 0 0 0 0 0 0 0 0 0 0 0
0 0 0 0 0 0 0 0 0 0 0 0 0 0 0 0 0 0 0 0 0 0 0 0 0 0 0 0 0 0 0 0 0 0 0 0 0 0 0 0 0 0 0
0 0 0 0 0 0 0 0 0 0 0 0 0 0 0 0 0 0 0 0 0 0 0 0 0 0 0 0 0 0 0 0 0 0 0 0 0 0 0 0 0 0 0
Wind_Speed_500mb
20 21 21 19 13 12 7 8 13 12 10 9 10 9 10 9 9 7 8 14 14 14 14 16 15 16 17 16 16 17 16 16 15 15 15 16 16 17 19 20 22 21 18
20 21 22 22 20 19 17 15 13 13 13 13 12 12 10 11 9 10 8 15 15 15 16 15 17 18 19 21 20 16 16 16 17 16 15 16 16 17 17 19 20 22 23
21 23 20 21 20 17 17 17 17 19 15 15 14 12 13 13 14 12 12 11 18 19 17 18 18 17 22 22 25 28 22 20 20 20 19 18 18 19 20 22 24 24 24
24 24 22 23 20 19 19 18 17 15 16 14 11 13 15 14 12 13 16 17 18 18 26 21 20 21 22 23 22 23 27 23 20 20 20 19 19 17 17 21 22 23 23
24 24 21 18 21 23 23 20 18 17 14 17 17 16 17 17 17 18 19 18 20 22 22 27 26 26 26 26 24 22 24 34 34 28 24 21 18 17 15 21 28 24 22
25 25 22 20 21 24 24 23 21 21 21 17 18 22 23 23 25 25 21 18 18 21 19 18 23 24 24 26 28 26 23 27 36 38 33 33 25 18 21 25 28 21 20
24 26 24 22 26 26 25 24 25 27 27 25 26 27 27 27 28 26 24 18 17 25 24 24 24 26 23 26 25 27 26 27 32 35 41 37 33 28 26 28 30 22 24
32 30 30 30 29 31 31 31 32 33 32 28 25 16 17 17 23 21 18 24 21 24 30 30 28 28 26 21 29 32 29 30 32 35 38 49 35 33 33 30 25 25 28
36 40 38 36 37 38 39 38 39 40 38 35 36 27 13 14 15 21 28 26 30 36 33 34 33 32 30 29 27 25 30 33 37 38 38 44 45 36 39 30 25 23 23
37 44 44 47 47 46 48 48 45 44 45 46 47 41 41 37 23 25 27 28 34 36 42 37 33 29 29 29 30 31 31 31 33 35 36 35 47 48 41 25 19 19 23
42 37 42 49 57 49 48 49 50 48 47 45 45 43 41 38 40 42 45 39 40 36 29 30 33 32 30 29 32 29 30 26 30 31 34 31 28 49 43 24 31 23 30
56 52 48 51 58 51 47 47 50 52 49 49 47 44 48 42 33 39 40 36 33 34 37 38 36 34 35 34 34 30 28 27 30 30 30 31 32 22 37 32 20 17 26
54 52 57 62 54 52 51 51 52 52 52 51 50 48 48 41 33 36 28 28 26 29 36 36 40 39 40 38 34 28 27 25 25 24 16 26 32 25 25 29 24 37 33
61 58 55 54 54 56 56 54 54 53 51 50 48 49 48 41 36 37 41 28 34 38 38 40 42 43 36 34 27 27 28 25 25 28 31 36 34 30 29 37 41 42 41
54 54 55 55 57 56 56 54 52 51 50 46 47 50 46 40 42 41 41 39 40 36 33 39 37 33 32 29 29 27 25 22 23 27 30 31 31 33 36 39 45 46 51
46 46 44 44 45 47 48 50 50 47 40 40 43 49 54 40 42 38 40 45 45 42 34 34 38 35 33 34 28 25 23 22 24 27 27 29 36 39 41 43 41 42 47
35 35 35 35 35 36 35 33 33 36 39 43 44 53 57 40 44 43 44 45 40 40 40 41 41 35 31 26 25 21 22 23 25 24 26 26 28 31 34 37 39 37 33
37 38 38 38 39 38 37 32 31 27 32 34 39 44 47 43 46 47 42 34 31 30 35 35 34 28 25 23 22 21 21 22 25 21 25 25 30 29 30 32 33 33 34
37 38 38 39 39 38 37 36 34 36 37 37 39 43 44 45 46 38 31 28 25 28 29 28 26 24 23 20 16 14 16 19 20 23 26 27 24 27 27 29 30 31 33
34 35 36 36 37 37 37 36 38 42 44 43 42 41 42 40 35 31 26 23 22 22 19 16 17 18 18 15 14 16 17 19 21 20 24 25 25 24 26 26 26 27 26
30 32 32 33 33 34 34 34 36 38 38 38 38 37 37 35 30 25 23 20 17 19 18 18 16 17 17 16 16 15 17 21 23 19 24 25 23 24 23 20 20 17 17
29 31 32 33 31 32 30 30 31 33 35 35 35 34 30 28 25 25 24 21 19 21 19 18 17 17 19 20 16 18 19 19 14 18 15 17 21 17 16 15 13 16 18
33 35 34 32 31 31 31 32 33 33 31 29 27 25 24 23 24 22 20 20 21 21 21 20 20 21 20 19 17 17 17 15 15 20 13 10 11 11 13 17 19 21 25
33 35 32 32 30 28 28 27 28 30 29 28 27 26 24 22 21 21 20 18 19 19 18 20 23 20 19 16 15 14 13 10 9 9 9 8 14 14 18 22 25 26 27
31 28 28 28 25 23 23 22 22 25 24 27 27 26 24 23 22 22 19 19 17 15 16 18 16 15 13 13 13 12 11 8 6 11 12 15 17 17 20 25 28 25 25
27 24 25 25 22 22 22 22 25 25 26 27 27 24 24 21 21 19 19 18 17 14 14 13 12 10 10 10 11 11 8 9 11 11 16 18 20 22 11 20 16 14 17
Wind_Direction_500mb
179 182 182 188 187 216 238 222 219 231 240 249 254 246 245 239 255 259 269 308 319 320 314 313 327 339 343 346 346 353 360 359 352 344 339 335 332 332 336 340 339 343 342
185 186 188 193 194 201 206 213 223 227 234 238 244 264 259 256 248 260 264 292 308 311 305 301 305 314 323 329 330 334 346 359 356 350 338 330 328 327 329 335 337 338 331
194 200 196 208 206 209 207 221 224 227 232 239 238 239 252 238 260 277 280 276 289 305 302 300 296 290 298 312 322 328 344 345 347 348 349 343 332 331 338 340 340 338 332
215 217 213 215 212 213 221 223 224 230 231 238 241 242 256 267 258 264 270 290 297 295 301 296 290 286 282 288 299 305 315 314 317 323 330 339 341 338 341 343 339 337 333
219 219 221 220 217 222 227 227 228 224 233 238 244 247 257 267 272 272 273 278 285 296 289 284 290 282 280 279 282 286 286 293 299 302 307 313 321 333 329 336 337 335 342
224 221 215 217 222 229 233 237 230 239 238 242 250 265 268 271 269 273 273 279 275 279 303 290 288 299 286 278 276 273 272 277 279 292 295 301 313 314 310 317 326 327 339
227 227 222 224 227 231 235 237 242 242 255 255 260 273 287 282 278 271 278 278 262 277 299 287 291 295 288 284 278 272 272 273 274 267 271 287 281 307 308 318 316 310 324
231 238 236 232 231 238 237 239 245 253 256 255 257 259 274 277 263 284 239 254 255 269 295 285 291 290 278 263 283 282 266 263 269 272 266 263 264 290 300 299 294 303 321
249 247 246 249 251 253 256 255 256 257 256 260 255 242 240 254 255 257 269 278 275 282 291 285 291 283 284 281 283 276 271 274 270 269 275 262 267 265 287 289 296 305 316
258 259 262 259 256 257 257 259 260 261 260 256 260 258 252 252 259 273 277 283 282 277 291 282 284 284 283 287 285 279 277 278 278 265 260 265 249 256 275 290 284 300 303
283 273 269 275 265 256 257 257 257 258 258 257 250 260 263 259 261 266 275 276 278 284 278 282 281 281 286 287 287 282 283 284 279 264 256 263 261 252 251 290 229 279 292
273 274 266 260 262 261 261 261 258 259 256 255 255 252 256 263 265 261 261 264 262 269 277 281 284 284 286 288 287 275 277 284 278 270 260 257 264 254 230 217 233 263 292
264 262 262 260 259 261 261 260 259 258 258 257 259 257 258 258 251 258 259 268 270 269 277 275 282 280 280 284 283 271 281 290 276 274 259 241 259 246 253 220 251 285 285
249 255 258 260 262 261 259 256 256 257 258 258 257 258 255 252 258 262 264 253 273 274 275 277 273 275 274 277 279 276 273 278 281 262 257 268 270 261 254 264 280 284 278
254 259 262 264 263 262 261 258 255 254 254 257 258 257 256 253 259 262 267 262 267 259 272 261 264 275 271 270 269 272 263 266 264 265 263 262 260 262 264 272 272 272 279
260 261 263 263 263 263 262 259 257 252 247 251 247 259 251 261 254 261 270 271 271 252 243 253 265 272 266 272 265 259 259 263 261 259 264 263 267 266 265 269 271 277 285
257 259 261 263 266 266 264 261 254 251 248 240 241 247 257 236 255 261 270 270 258 252 245 249 260 264 270 267 257 259 266 269 266 265 271 265 271 277 280 280 280 280 276
256 260 262 263 262 262 263 257 256 245 240 243 240 250 252 242 261 273 272 261 253 250 244 250 256 252 260 260 264 269 270 271 268 266 264 266 268 271 276 276 276 276 280
268 267 265 262 260 258 256 251 245 239 243 241 244 247 257 259 269 269 262 254 247 246 247 250 241 245 249 254 257 264 273 273 273 274 274 274 277 278 274 274 276 274 273
271 271 270 268 265 260 254 250 246 246 246 245 246 248 251 255 257 259 249 240 236 230 228 233 235 240 242 242 247 257 266 268 274 275 277 281 285 286 283 283 279 275 272
274 272 268 266 264 261 256 253 249 248 247 246 247 246 249 252 249 239 233 220 211 221 219 231 237 242 243 237 235 246 251 270 282 283 286 291 292 293 294 291 287 280 273
280 276 270 264 263 261 260 253 248 245 246 244 246 248 241 237 229 221 217 224 226 227 231 236 240 236 237 238 244 249 254 261 261 287 291 290 301 299 295 291 289 279 274
283 278 274 270 265 262 256 251 249 249 247 242 233 227 221 213 215 217 221 224 231 234 235 235 229 226 241 244 252 249 253 256 256 277 301 298 296 284 285 285 285 282 277
283 284 277 266 263 259 255 251 236 235 230 224 218 211 207 205 209 218 223 226 228 233 233 231 235 234 241 239 238 239 241 247 256 273 282 284 278 278 283 286 287 286 283
285 288 283 274 256 244 244 230 216 214 215 215 209 206 208 214 220 226 230 234 235 230 228 229 233 233 235 235 232 218 209 207 238 276 278 283 273 288 287 283 286 291 293
280 285 275 257 240 224 220 211 200 202 204 210 212 213 218 221 226 230 228 226 228 221 221 219 219 221 213 215 212 221 227 237 257 272 278 277 289 302 297 286 281 290 292
Wind_Speed_850mb
20 21 21 19 13 12 7 8 13 12 10 9 10 9 10 9 9 7 8 14 14 14 14 16 15 16 17 16 16 17 16 16 15 15 15 16 16 17 19 20 22 21 18
20 21 22 22 20 19 17 15 13 13 13 13 12 12 10 11 9 10 8 15 15 15 16 15 17 18 19 21 20 16 16 16 17 16 15 16 16 17 17 19 20 22 23
21 23 20 21 20 17 17 17 17 19 15 15 14 12 13 13 14 12 12 11 18 19 17 18 18 17 22 22 25 28 22 20 20 20 19 18 18 19 20 22 24 24 24
24 24 22 23 20 19 19 18 17 15 16 14 11 13 15 14 12 13 16 17 18 18 26 21 20 21 22 23 22 23 27 23 20 20 20 19 19 17 17 21 22 23 23
24 24 21 18 21 23 23 20 18 17 14 17 17 16 17 17 17 18 19 18 20 22 22 27 26 26 26 26 24 22 24 34 34 28 24 21 18 17 15 21 28 24 22
25 25 22 20 21 24 24 23 21 21 21 17 18 22 23 23 25 25 21 18 18 21 19 18 23 24 24 26 28 26 23 27 36 38 33 33 25 18 21 25 28 21 20
24 26 24 22 26 26 25 24 25 27 27 25 26 27 27 27 28 26 24 18 17 25 24 24 24 26 23 26 25 27 26 27 32 35 41 37 33 28 26 28 30 22 24
32 30 30 30 29 31 31 31 32 33 32 28 25 16 17 17 23 21 18 24 21 24 30 30 28 28 26 21 29 32 29 30 32 35 38 49 35 33 33 30 25 25 28
36 40 38 36 37 38 39 38 39 40 38 35 36 27 13 14 15 21 28 26 30 36 33 34 33 32 30 29 27 25 30 33 37 38 38 44 45 36 39 30 25 23 23
37 44 44 47 47 46 48 48 45 44 45 46 47 41 41 37 23 25 27 28 34 36 42 37 33 29 29 29 30 31 31 31 33 35 36 35 47 48 41 25 19 19 23
42 37 42 49 57 49 48 49 50 48 47 45 45 43 41 38 40 42 45 39 40 36 29 30 33 32 30 29 32 29 30 26 30 31 34 31 28 49 43 24 31 23 30
56 52 48 51 58 51 47 47 50 52 49 49 47 44 48 42 33 39 40 36 33 34 37 38 36 34 35 34 34 30 28 27 30 30 30 31 32 22 37 32 20 17 26
54 52 57 62 54 52 51 51 52 52 52 51 50 48 48 41 33 36 28 28 26 29 36 36 40 39 40 38 34 28 27 25 25 24 16 26 32 25 25 29 24 37 33
61 58 55 54 54 56 56 54 54 53 51 50 48 49 48 41 36 37 41 28 34 38 38 40 42 43 36 34 27 27 28 25 25 28 31 36 34 30 29 37 41 42 41
54 54 55 55 57 56 56 54 52 51 50 46 47 50 46 40 42 41 41 39 40 36 33 39 37 33 32 29 29 27 25 22 23 27 30 31 31 33 36 39 45 46 51
46 46 44 44 45 47 48 50 50 47 40 40 43 49 54 40 42 38 40 45 45 42 34 34 38 35 33 34 28 25 23 22 24 27 27 29 36 39 41 43 41 42 47
35 35 35 35 35 36 35 33 33 36 39 43 44 53 57 40 44 43 44 45 40 40 40 41 41 35 31 26 25 21 22 23 25 24 26 26 28 31 34 37 39 37 33
37 38 38 38 39 38 37 32 31 27 32 34 39 44 47 43 46 47 42 34 31 30 35 35 34 28 25 23 22 21 21 22 25 21 25 25 30 29 30 32 33 33 34
37 38 38 39 39 38 37 36 34 36 37 37 39 43 44 45 46 38 31 28 25 28 29 28 26 24 23 20 16 14 16 19 20 23 26 27 24 27 27 29 30 31 33
34 35 36 36 37 37 37 36 38 42 44 43 42 41 42 40 35 31 26 23 22 22 19 16 17 18 18 15 14 16 17 19 21 20 24 25 25 24 26 26 26 27 26
30 32 32 33 33 34 34 34 36 38 38 38 38 37 37 35 30 25 23 20 17 19 18 18 16 17 17 16 16 15 17 21 23 19 24 25 23 24 23 20 20 17 17
29 31 32 33 31 32 30 30 31 33 35 35 35 34 30 28 25 25 24 21 19 21 19 18 17 17 19 20 16 18 19 19 14 18 15 17 21 17 16 15 13 16 18
33 35 34 32 31 31 31 32 33 33 31 29 27 25 24 23 24 22 20 20 21 21 21 20 20 21 20 19 17 17 17 15 15 20 13 10 11 11 13 17 19 21 25
33 35 32 32 30 28 28 27 28 30 29 28 27 26 24 22 21 21 20 18 19 19 18 20 23 20 19 16 15 14 13 10 9 9 9 8 14 14 18 22 25 26 27
31 28 28 28 25 23 23 22 22 25 24 27 27 26 24 23 22 22 19 19 17 15 16 18 16 15 13 13 13 12 11 8 6 11 12 15 17 17 20 25 28 25 25
27 24 25 25 22 22 22 22 25 25 26 27 27 24 24 21 21 19 19 18 17 14 14 13 12 10 10 10 11 11 8 9 11 11 16 18 20 22 11 20 16 14 17
Wind_Direction_850mb
179 182 182 188 187 216 238 222 219 231 240 249 254 246 245 239 255 259 269 308 319 320 314 313 327 339 343 346 346 353 360 359 352 344 339 335 332 332 336 340 339 343 342
185 186 188 193 194 201 206 213 223 227 234 238 244 264 259 256 248 260 264 292 308 311 305 301 305 314 323 329 330 334 346 359 356 350 338 330 328 327 329 335 337 338 331
194 200 196 208 206 209 207 221 224 227 232 239 238 239 252 238 260 277 280 276 289 305 302 300 296 290 298 312 322 328 344 345 347 348 349 343 332 331 338 340 340 338 332
215 217 213 215 212 213 221 223 224 230 231 238 241 242 256 267 258 264 270 290 297 295 301 296 290 286 282 288 299 305 315 314 317 323 330 339 341 338 341 343 339 337 333
219 219 221 220 217 222 227 227 228 224 233 238 244 247 257 267 272 272 273 278 285 296 289 284 290 282 280 279 282 286 286 293 299 302 307 313 321 333 329 336 337 335 342
224 221 215 217 222 229 233 237 230 239 238 242 250 265 268 271 269 273 273 279 275 279 303 290 288 299 286 278 276 273 272 277 279 292 295 301 313 314 310 317 326 327 339
227 227 222 224 227 231 235 237 242 242 255 255 260 273 287 282 278 271 278 278 262 277 299 287 291 295 288 284 278 272 272 273 274 267 271 287 281 307 308 318 316 310 324
231 238 236 232 231 238 237 239 245 253 256 255 257 259 274 277 263 284 239 254 255 269 295 285 291 290 278 263 283 282 266 263 269 272 266 263 264 290 300 299 294 303 321
249 247 246 249 251 253 256 255 256 257 256 260 255 242 240 254 255 257 269 278 275 282 291 285 291 283 284 281 283 276 271 274 270 269 275 262 267 265 287 289 296 305 316
258 259 262 259 256 257 257 259 260 261 260 256 260 258 252 252 259 273 277 283 282 277 291 282 284 284 283 287 285 279 277 278 278 265 260 265 249 256 275 290 284 300 303
283 273 269 275 265 256 257 257 257 258 258 257 250 260 263 259 261 266 275 276 278 284 278 282 281 281 286 287 287 282 283 284 279 264 256 263 261 252 251 290 229 279 292
273 274 266 260 262 261 261 261 258 259 256 255 255 252 256 263 265 261 261 264 262 269 277 281 284 284 286 288 287 275 277 284 278 270 260 257 264 254 230 217 233 263 292
264 262 262 260 259 261 261 260 259 258 258 257 259 257 258 258 251 258 259 268 270 269 277 275 282 280 280 284 283 271 281 290 276 274 259 241 259 246 253 220 251 285 285
249 255 258 260 262 261 259 256 256 257 258 258 257 258 255 252 258 262 264 253 273 274 275 277 273 275 274 277 279 276 273 278 281 262 257 268 270 261 254 264 280 284 278
254 259 262 264 263 262 261 258 255 254 254 257 258 257 256 253 259 262 267 262 267 259 272 261 264 275 271 270 269 272 263 266 264 265 263 262 260 262 264 272 272 272 279
260 261 263 263 263 263 262 259 257 252 247 251 247 259 251 261 254 261 270 271 271 252 243 253 265 272 266 272 265 259 259 263 261 259 264 263 267 266 265 269 271 277 285
257 259 261 263 266 266 264 261 254 251 248 240 241 247 257 236 255 261 270 270 258 252 245 249 260 264 270 267 257 259 266 269 266 265 271 265 271 277 280 280 280 280 276
256 260 262 263 262 262 263 257 256 245 240 243 240 250 252 242 261 273 272 261 253 250 244 250 256 252 260 260 264 269 270 271 268 266 264 266 268 271 276 276 276 276 280
268 267 265 262 260 258 256 251 245 239 243 241 244 247 257 259 269 269 262 254 247 246 247 250 241 245 249 254 257 264 273 273 273 274 274 274 277 278 274 274 276 274 273
271 271 270 268 265 260 254 250 246 246 246 245 246 248 251 255 257 259 249 240 236 230 228 233 235 240 242 242 247 257 266 268 274 275 277 281 285 286 283 283 279 275 272
274 272 268 266 264 261 256 253 249 248 247 246 247 246 249 252 249 239 233 220 211 221 219 231 237 242 243 237 235 246 251 270 282 283 286 291 292 293 294 291 287 280 273
280 276 270 264 263 261 260 253 248 245 246 244 246 248 241 237 229 221 217 224 226 227 231 236 240 236 237 238 244 249 254 261 261 287 291 290 301 299 295 291 289 279 274
283 278 274 270 265 262 256 251 249 249 247 242 233 227 221 213 215 217 221 224 231 234 235 235 229 226 241 244 252 249 253 256 256 277 301 298 296 284 285 285 285 282 277
283 284 277 266 263 259 255 251 236 235 230 224 218 211 207 205 209 218 223 226 228 233 233 231 235 234 241 239 238 239 241 247 256 273 282 284 278 278 283 286 287 286 283
285 288 283 274 256 244 244 230 216 214 215 215 209 206 208 214 220 226 230 234 235 230 228 229 233 233 235 235 232 218 209 207 238 276 278 283 273 288 287 283 286 291 293
280 285 275 257 240 224 220 211 200 202 204 210 212 213 218 221 226 230 228 226 228 221 221 219 219 221 213 215 212 221 227 237 257 272 278 277 289 302 297 286 281 290 292